Flag for U.S.A. Weather past 2 weeks in Vancouver, Washington, U.S.A.

Now
77 °F

Sunny.


Feels Like: 78 °F
Forecast: 63 / 93 °F
Wind: 7 mph from Northwest

Location: Vancouver - Pearson Airpark

Current Time: Jul 3, 2015 at 10:28:07 PM

Latest Report: Jul 3, 2015 at 9:53 PM


Visibility: 10 mi

Pressure: 29.86 "Hg

Humidity: 44%

Dew point: 53 °F

Location of VancouverLocation

Historic Weather in Vancouver — Graph

°F

Vancouver temperature yesterday

Maximum temperature yesterday: 96 °F (at 2:53 PM)
Minimum temperature yesterday: 63 °F (at 4:53 AM)
Average temperature yesterday: 80 °F

Past Weeks' High & Low Weather Summary

 TemperatureHumidityPressure
High96 °F (Jul 2, 2:53 PM)83% (Jun 30, 4:53 AM)30.16 "Hg (Jun 30, 4:53 AM)
Low53 °F (Jun 20, 5:53 AM)17% (Jun 23, 1:53 PM)29.81 "Hg (Jul 3, 6:53 PM)
Average74 °F51%29.99 "Hg
* Reported Jun 18 8:53 PM — Jul 3 8:53 PM, Vancouver, Weather by CustomWeather, © 2015

Note: Actual official high and low records may vary slightly from our data, if they occured in-between our weather recording intervals... More about our weather records

Advertising

Vancouver weather history for previous 24 hours

 ConditionsComfort  
Time TempWeatherWind HumidityBarometerVisibility
8:53 PM
Fri, Jul 3
81 °FSunny.6 mph42%29.83 "Hg10 mi
7:53 PM87 °FSunny.12 mph37%29.82 "Hg10 mi
6:53 PM92 °FSunny.8 mph29%29.81 "Hg10 mi
5:53 PM93 °FSunny.7 mph25%29.81 "Hg10 mi
4:53 PM94 °FSunny.6 mph26%29.83 "Hg10 mi
3:53 PM94 °FSunny.9 mph28%29.85 "Hg10 mi
2:53 PM91 °FSunny.7 mph32%29.87 "Hg10 mi
1:53 PM88 °FSunny.6 mph35%29.89 "Hg10 mi
12:53 PM86 °FSunny.5 mph33%29.91 "Hg10 mi
11:53 AM82 °FSunny.5 mph35%29.93 "Hg10 mi
10:53 AM78 °FSunny.7 mph46%29.95 "Hg10 mi
9:53 AM74 °FSunny.7 mph53%29.96 "Hg10 mi
8:53 AM70 °FSunny.6 mph57%29.96 "Hg10 mi
7:53 AM67 °FSunny.3 mph61%29.96 "Hg10 mi
6:53 AM65 °FSunny.5 mph68%29.96 "Hg10 mi
5:53 AM64 °FClear.No wind68%29.95 "Hg10 mi
4:53 AM66 °FClear.3 mph63%29.94 "Hg10 mi
3:53 AM69 °FClear.No wind55%29.92 "Hg10 mi
2:53 AM69 °FClear.3 mph55%29.92 "Hg10 mi
1:53 AM73 °FClear.No wind50%29.92 "Hg10 mi
12:53 AM75 °FClear.No wind45%29.91 "Hg10 mi
11:53 PM
Thu, Jul 2
77 °FClear.7 mph42%29.90 "Hg10 mi
10:53 PM79 °FClear.8 mph41%29.89 "Hg10 mi
Weather by CustomWeather, © 2015

See weather overviewHow to use our weather pages